KK7N Weather Reports


time (UTC)temp
C
wind
direction
speed
KPH
gust
KPH
rain 1hr
cm
rain 24hr
cm
rain mn
cm
humidity
%
barometer
mb
20260902204558 15 0 0.0 0.0 0.38 0.71 0.71 91 1006.8
20260902203057 15 0 0.0 0.0 0.33 0.64 0.64 91 1006.7
20260902201609 14 0 0.0 1.6 0.25 0.53 0.53 90 1006.8
20260902200057 14 0 0.0 3.2 0.18 0.41 0.41 90 1006.9
20260902194553 15 86 1.6 6.4 0.13 0.33 0.33 89 1007.0
20260902193054 15 84 3.2 6.4 0.13 0.30 0.30 88 1007.1
20260902191602 15 0 0.0 0.0 0.15 0.28 0.28 90 1007.3
20260902190052 15 0 0.0 0.0 0.20 0.23 0.23 88 1007.4
20260902184624 15 0 0.0 4.8 0.20 0.20 0.20 90 1007.7
20260902183057 16 0 0.0 8.0 0.18 0.18 0.18 84 1007.8
20260902181605 16 0 1.6 4.8 0.10 0.10 0.10 82 1007.9
20260902180114 17 0 0.0 0.0 0.03 0.03 0.03 80 1007.6
20260902174555 17 0 0.0 1.6 0.00 0.00 0.00 78 1007.3
20260902173056 17 0 0.0 3.2 0.00 0.00 0.00 76 1007.0
20260902171558 17 132 3.2 4.8 0.00 0.00 0.00 74 1007.0
20260902170054 17 0 0.0 0.0 0.00 0.00 0.00 73 1007.1
20260902164551 17 0 0.0 3.2 0.00 0.00 0.00 70 1006.8
20260902163054 17 0 0.0 4.8 0.00 0.00 0.00 70 1006.9
20260902161556 16 0 0.0 6.4 0.00 0.00 0.00 70 1007.0
20260902160051 16 0 0.0 3.2 0.00 0.00 0.00 70 1007.1
20260902154555 16 171 1.6 6.4 0.00 0.00 0.00 70 1007.3
20260902153052 16 173 1.6 8.0 0.00 0.00 0.00 70 1007.4
20260902151602 16 161 1.6 8.0 0.00 0.00 0.00 71 1007.6
20260902150058 16 143 1.6 8.0 0.00 0.00 0.00 71 1007.7
20260902144607 16 178 0.0 4.8 0.00 0.00 0.00 72 1007.8
20260902143055 15 180 0.0 3.2 0.00 0.00 0.00 72 1008.0
20260902141548 15 98 3.2 6.4 0.00 0.00 0.00 73 1008.2
20260902140055 15 116 0.0 4.8 0.00 0.00 0.00 72 1008.5
20260902134558 15 0 0.0 4.8 0.00 0.00 0.00 72 1008.7
20260902133056 15 123 0.0 4.8 0.00 0.00 0.00 72 1009.0
20260902131556 15 0 1.6 4.8 0.00 0.00 0.00 72 1009.1
20260902130103 15 0 0.0 4.8 0.00 0.00 0.00 74 1009.3
20260902124556 15 0 0.0 0.0 0.00 0.00 0.00 73 1009.6
20260902123057 15 0 0.0 0.0 0.00 0.00 0.00 72 1009.7
20260902121556 15 168 0.0 1.6 0.00 0.00 0.00 72 1009.9
20260902120053 15 0 0.0 0.0 0.00 0.00 0.00 74 1010.0
20260902114555 15 0 0.0 0.0 0.00 0.00 0.00 74 1010.2
20260902113054 15 0 0.0 0.0 0.00 0.00 0.00 76 1010.3
20260902111552 15 0 0.0 0.0 0.00 0.00 0.00 74 1010.5
20260902110055 15 0 0.0 0.0 0.00 0.00 0.00 75 1010.6
20260902104551 16 0 0.0 0.0 0.00 0.00 0.00 72 1010.7
20260902103052 16 0 0.0 3.2 0.00 0.00 0.00 72 1010.7
20260902101549 16 122 0.0 0.0 0.00 0.00 0.00 72 1010.8
20260902100104 16 0 0.0 4.8 0.00 0.00 0.00 71 1010.9
20260902094607 16 207 0.0 6.4 0.00 0.00 0.00 72 1011.2
20260902093050 16 174 0.0 4.8 0.00 0.00 0.00 72 1011.2
20260902091555 16 0 3.2 8.0 0.00 0.00 0.00 73 1011.4
20260902090046 16 0 1.6 11.3 0.00 0.00 0.00 73 1011.4
20260902084553 16 181 0.0 8.0 0.00 0.00 0.00 74 1011.5
20260902083055 16 167 0.0 6.4 0.00 0.00 0.00 74 1011.6
20260902081548 16 0 0.0 1.6 0.00 0.00 0.00 72 1011.4
20260902080111 16 186 0.0 3.2 0.00 0.00 0.00 72 1011.4
20260902074552 16 161 1.6 4.8 0.00 0.00 0.00 72 1011.6
20260902073048 16 0 0.0 1.6 0.00 0.00 0.00 71 1011.6
20260902071553 16 0 0.0 1.6 0.00 0.00 0.00 70 1011.7
20260902070101 16 184 0.0 4.8 0.00 0.00 0.00 70 1012.0
20260902064607 16 200 1.6 11.3 0.00 0.00 0.00 70 1012.0
20260902063054 16 0 0.0 4.8 0.00 0.00 0.00 69 1012.1
20260902061558 17 159 0.0 8.0 0.00 0.00 0.00 69 1012.0
20260902060100 17 202 0.0 4.8 0.00 0.00 0.00 68 1012.0
20260902054547 17 193 1.6 9.7 0.00 0.00 0.00 67 1012.3
20260902053059 17 179 1.6 8.0 0.00 0.00 0.00 67 1012.3
20260902051553 17 223 1.6 11.3 0.00 0.00 0.00 67 1012.2
20260902050053 17 211 3.2 11.3 0.00 0.00 0.00 67 1012.2
20260902044557 17 188 6.4 11.3 0.00 0.00 0.00 67 1012.1
20260902043058 17 203 4.8 9.7 0.00 0.00 0.00 66 1012.0
20260902041553 17 219 3.2 11.3 0.00 0.00 0.00 66 1012.0
20260902040054 18 169 3.2 14.5 0.00 0.00 0.00 65 1012.0
20260902034601 18 210 6.4 19.3 0.00 0.00 0.00 64 1011.9
20260902033107 18 243 4.8 9.7 0.00 0.00 0.00 63 1011.7
20260902031557 18 176 3.2 14.5 0.00 0.00 0.00 63 1011.6
20260902030053 18 261 3.2 16.1 0.00 0.00 0.00 62 1011.6
20260902024548 19 227 4.8 16.1 0.00 0.00 0.00 61 1011.6
20260902023052 19 220 3.2 11.3 0.00 0.00 0.00 60 1011.4
20260902021606 19 228 6.4 17.7 0.00 0.00 0.00 59 1011.3
20260902020050 19 202 3.2 17.7 0.00 0.00 0.00 58 1011.4
20260902014549 20 241 6.4 17.7 0.00 0.00 0.00 57 1011.3
20260902013103 20 206 4.8 12.9 0.00 0.00 0.00 57 1011.3
20260902011548 20 232 9.7 17.7 0.00 0.00 0.00 56 1011.3
20260902004557 20 202 3.2 16.1 0.00 0.00 0.00 57 1010.9
20260902003053 20 286 4.8 14.5 0.00 0.00 0.00 57 1010.9
20260902001546 20 331 4.8 11.3 0.00 0.00 0.00 57 1010.9
20260902000057 21 250 3.2 12.9 0.00 0.00 0.00 55 1010.9
20260901234556 20 314 3.2 14.5 0.00 0.00 0.00 57 1011.1
20260901233051 21 270 4.8 16.1 0.00 0.00 0.00 57 1011.2
20260901231555 21 205 4.8 12.9 0.00 0.00 0.00 56 1011.3
20260901230055 21 279 3.2 12.9 0.00 0.00 0.00 57 1011.3
20260901224559 21 292 3.2 9.7 0.00 0.00 0.00 56 1011.3
20260901223057 20 284 4.8 8.0 0.00 0.00 0.00 57 1011.4
20260901221554 20 210 3.2 12.9 0.00 0.00 0.00 56 1011.3
20260901220059 20 227 1.6 9.7 0.00 0.00 0.00 57 1011.4
20260901214559 20 263 6.4 14.5 0.00 0.00 0.00 57 1011.4
20260901213100 20 293 8.0 14.5 0.00 0.00 0.00 58 1011.5
20260901211554 19 213 3.2 12.9 0.00 0.00 0.00 60 1011.6
20260901210055 19 296 4.8 11.3 0.00 0.00 0.00 63 1011.6